This is the latest recevied weather packets stored in our database for station/object KD2SIG. If no packets are shown the sender has not sent any weather packets the latest 10 day(s).
| Time | Temp. | Humidity | Pressure | Rain* | Wind** | Luminosity | Snow |
|---|---|---|---|---|---|---|---|
| 1777936608 | 20° C | 51% | 1003.6 hPa | 0 mm | - | 38 W/m² | - |
| 1777936304 | 20° C | 50% | 1003.7 hPa | 0 mm | - | 45 W/m² | - |
| 1777936001 | 20° C | 49% | 1003.8 hPa | 0 mm | - | 48 W/m² | - |
| 1777935700 | 20° C | 49% | 1003.8 hPa | 0 mm | - | 44 W/m² | - |
| 1777935397 | 20° C | 48% | 1003.8 hPa | 0 mm | - | 41 W/m² | - |
| 1777935093 | 20.56° C | 48% | 1004 hPa | 0 mm | - | 45 W/m² | - |
| 1777934790 | 20.56° C | 46% | 1003.8 hPa | 0 mm | - | 53 W/m² | - |
| 1777934487 | 21.11° C | 46% | 1003.7 hPa | 0 mm | - | 91 W/m² | - |
| 1777934184 | 21.67° C | 46% | 1003.7 hPa | 0 mm | - | 111 W/m² | - |
| 1777933880 | 21.67° C | 47% | 1003.9 hPa | 0 mm | - | 128 W/m² | - |
| 1777933577 | 21.67° C | 47% | 1004 hPa | 0 mm | - | 135 W/m² | - |
| 1777933274 | 21.67° C | 47% | 1003.9 hPa | 0 mm | - | 160 W/m² | - |
| 1777932971 | 21.11° C | 47% | 1004.1 hPa | 0 mm | - | 163 W/m² | - |
| 1777932668 | 21.11° C | 46% | 1004 hPa | 0 mm | - | 169 W/m² | - |
| 1777932364 | 21.11° C | 46% | 1003.9 hPa | 0 mm | - | 165 W/m² | - |
| 1777932062 | 21.67° C | 45% | 1003.8 hPa | 0 mm | - | 178 W/m² | - |
| 1777931758 | 21.67° C | 46% | 1004 hPa | 0 mm | - | 211 W/m² | - |
| 1777931456 | 21.67° C | 47% | 1004 hPa | 0 mm | - | 220 W/m² | - |
| 1777931151 | 21.11° C | 46% | 1004.2 hPa | 0 mm | - | 247 W/m² | - |
| 1777930848 | 21.11° C | 45% | 1004.2 hPa | 0 mm | - | 257 W/m² | - |
| 1777930544 | 21.67° C | 47% | 1004.2 hPa | 0 mm | - | 265 W/m² | - |
| 1777930242 | 21.67° C | 45% | 1004.3 hPa | 0 mm | - | 275 W/m² | - |
| 1777929937 | 21.67° C | 48% | 1004.3 hPa | 0 mm | - | 322 W/m² | - |
| 1777929635 | 21.67° C | 46% | 1004.2 hPa | 0 mm | - | 343 W/m² | - |
| 1777929332 | 21.11° C | 46% | 1004.1 hPa | 0 mm | - | 326 W/m² | - |
* Rain latest hour (hover to see other rain measurements)
** Current wind speed in m/s (hover to see current wind gust speed)